Regional Weather Roundup
Issued by NWS Upton, NY

Current Version | Previous Version | Graphics & Text | Print | Product List | Glossary Off
Versions: 1 2 3 4 5 6 7 8 9 10 11 12 13 14 15 16 17 18 19 20 21 22 23 24 25 26 27

000
ASUS41 KOKX 162009
RWROKX

REGIONAL WEATHER ROUNDUP
NATIONAL WEATHER SERVICE NEW YORK NY
300 PM EST THU NOV 16 2017

NOTE: "FAIR" INDICATES FEW OR NO CLOUDS BELOW 12,000 FEET WITH NO
SIGNIFICANT WEATHER AND/OR OBSTRUCTIONS TO VISIBILITY.

NYZ071-072-176-178-NJZ106-104-162100-
NEW YORK CITY METRO AREA

CITY           SKY/WX    TMP DP  RH WIND       PRES   REMARKS
Central Park   CLOUDY    51  40  65 W8G21     29.79R
Bronx Bot Gard   N/A     52  36  54 SW26      29.78R
LaGuardia APRT LGT RAIN  53  39  59 W20G30    29.77R
Kennedy INTL   MOSUNNY   56  37  49 W22G39    29.77R
Breezy Point     N/A     54 N/A N/A NW23G32     N/A
Newark/Liberty LGT RAIN  52  37  56 W20G33    29.79R
Teterboro      PTSUNNY   53  39  59 W9        29.76R
$$

NYZ177-179-078>081-162100-
LONG ISLAND NEW YORK

CITY           SKY/WX    TMP DP  RH WIND       PRES   REMARKS
Jones Beach      N/A     55 N/A N/A W23G30      N/A
Matinecock PT    N/A     54 N/A N/A SW31        N/A
Farmingdale    PTSUNNY   56  36  47 W17G26    29.74S
MacArthur/ISP  MOSUNNY   55  41  59 W14       29.73S
Shirley        MOSUNNY   55  41  59 W12G20    29.73F
Mt Sinai Harb    N/A    N/A N/A N/A W7G13       N/A
Westhampton    SUNNY     56  41  57 W12       29.73F
East Hampton   CLOUDY    54  44  69 W8        29.72R
Southold       NOT AVBL
Montauk          N/A     55  50  83 W8        29.72S
$$

NYZ052-065-067-162100-
HUDSON VALLEY

CITY           SKY/WX    TMP DP  RH WIND       PRES   REMARKS
White Plains   MOSUNNY   54  34  46 W14G26    29.73R
Larchmont Harb   N/A     54 N/A N/A SW22G29     N/A
Croton On Huds   N/A     55 N/A N/A W22G28      N/A
Newburgh       PTSUNNY   48  39  71 NW20G33   29.76R
Montgomery     PTSUNNY   50  37  61 W17G26    29.75R
Poughkeepsie   CLOUDY    50  39  66 W10G18    29.74R
Albany         PTSUNNY   52  37  56 W8        29.69F
$$

NJZ001-105-106-008-010-013-015-019>022-104-162100-
NEW JERSEY

CITY           SKY/WX    TMP DP  RH WIND       PRES   REMARKS
Newark/Liberty LGT RAIN  52  37  56 W20G33    29.79R
Teterboro      PTSUNNY   53  39  59 W9        29.76R
Caldwell       MOSUNNY   53  38  56 W9G21     29.79R
Somerville     MOSUNNY   50  42  74 W9        29.80F
Linden         CLOUDY    48  41  75 NW15      29.80R
Perth Amboy      N/A     48 N/A N/A W16G22      N/A
Sussex         PTSUNNY   46  41  82 SW6G16    29.80R
Andover          N/A     50  37  61 NW9G20    29.80R
Trenton        MOSUNNY   53  39  59 NW10G18   29.81S
Millville      SUNNY     61  37  41 W16G23    29.84S
Atlantic City  SUNNY     60  37  42 W13G24    29.82R
Wrightstown    MOSUNNY   58  35  43 NW17G24   29.78R
Toms River     PTSUNNY   57  37  47 W16       29.80R
Belmar         SUNNY     57  35  43 W24G36    29.79R
$$

PAZ047>061-062-071-162100-
EASTERN PENNSYLVANIA

CITY           SKY/WX    TMP DP  RH WIND       PRES   REMARKS
Philadelphia   MOSUNNY   57  36  45 W13G22    29.84R
Allentown      PTSUNNY   49  36  61 W17G29    29.85R
Scranton       LGT RAIN  45  37  73 W18       29.81S
$$

CTZ002-004>006-009-010-012-RIZ004-006-007-MAZ004-011-015-162100-
SOUTHERN NEW ENGLAND
 IN CT

CITY           SKY/WX    TMP DP  RH WIND       PRES   REMARKS
Bradley INTL   CLOUDY    47  45  93 S3        29.71F FOG
Hartford       PTSUNNY   50  47  89 CALM      29.71F
Danbury        MOSUNNY   54  36  50 VRB7G18   29.72F
Wtrbury/Oxford MOSUNNY   51  37  58 VRB6      29.71F
Norwalk Harbor   N/A     54 N/A N/A SW14G21     N/A
Bridgeport     SUNNY     57  42  57 W9        29.72F
Meriden        PTSUNNY   54  41  61 W5        29.71F
New Haven      MOSUNNY   56  43  61 SW9       29.71F
Chester        FAIR      55  43  62 VRB5      29.70F
Groton         CLOUDY    55  49  80 W7        29.70F
Wilimantic     CLOUDY    51  48  89 CALM      29.71F

 IN RI

CITY           SKY/WX    TMP DP  RH WIND       PRES   REMARKS
Providence     LGT RAIN  51  50  96 W3        29.70F
Block Island   MOSUNNY   52  48  86 W5        29.71S
Westerly       PTSUNNY   54  51  90 W6        29.71F
 IN MA

CITY           SKY/WX    TMP DP  RH WIND       PRES   REMARKS
Boston         LGT RAIN  47  46  97 NE3       29.70F
Worcester      CLOUDY    46  42  86 W6        29.69F
Westfield      CLOUDY    44  44 100 CALM      29.70F
Provincetown   HVY RAIN  49  48  97 CALM      29.71  FOG
Nantucket      LGT RAIN  51  51 100 SE16G31   29.65F FOG
$$

ANZ330-335-338-340-345-350-353-355-162100-
COASTAL MARINE OBSERVATIONS


STATION/POSITION TIME  SKY/WX   TEMP    WIND        PRES    VSBY  WAVE
                                AIR SEA DIR/SP/G                  HT/PER
                 (UTC)          (F)     (DEG/KT/KT) (MB)    (MI)  (FT/S)
NY HARB ENTRANCE 1850            57 58  270/ 14/ 17 1007.0          4/11
20 S FIRE ISLAND 1850            55 59  280/ 17/ 21 1007.5          5/11
GREAT SOUTH BAY  1930            50 47  260/ 10/ 12   N/A
HUDSON CANYON    1850            57 61  280/ 19/ 25 1007.3          6/11
KINGS POINT      1942            51 54  350/ 25/ 38 1008.8
EXECUTION ROCKS  1930            57     250/ 16/ 21   N/A
WESTERN LI SOUND 1849            56     250/ 14/ 19   N/A           1/ 2
CENTRAL LI SOUND 1900            55     250/ 17/ 19   N/A           2
ROBBINS REEF     1942            53     270/ 35/ 40 1008.5
$$


>>>>>>>>>>>>>>>>>>>>>>>>>>>> KEY <<<<<<<<<<<<<<<<<<<<<<<<<<<
>                                                          <
>     SKY/WX - Sky Condition/Present Weather               <
>     TMP    - Temperature in Fahrenheit                   <
>     DP     - Dew Point in Fahrenheit                     <
>     RH     - Relative Humidity in Percent                <
>     WIND   - Direction (from) and Speed in MPH           <
>     PRES   - Mean Sea Level Pressure (inches of Hg)      <
>     WCI    - Wind Chill Index                            <
>     VSB    - VISIBILITY IN MILES                         <
>     HX     - HEAT INDEX                                  <
>     TC     - TEMPERATURE IN CELSIUS                      <
>     VRB    - VARIABLE WIND DIRECTION                     <
>                                                          <
>>>>>>>>>>>>>>>>>>>>>>>>>>>> KEY <<<<<<<<<<<<<<<<<<<<<<<<<<<




USA.gov is the U.S. government's official web portal to all federal, state and local government web resources and services.